Flag for Sweden Weather past 2 weeks in Linköping, Sweden

Now
59 °F

Passing clouds.


Feels Like: 58 °F
Forecast: 60 / 72 °F
Wind: 8 mph from Southeast

Location: Linkoping / Saab

Current Time: Aug 5, 2015 at 1:10:42 AM

Latest Report: Aug 5, 2015 at 12:20 AM


Visibility: N/A

Pressure: 29.98 "Hg

Humidity: 82%

Dew point: 54 °F

Location of LinköpingLocation

Historic Weather in Linköping — Graph

°F

Linköping temperature yesterday

Maximum temperature yesterday: 73 °F (at 12:50 PM)
Minimum temperature yesterday: 48 °F (at 5:20 AM)
Average temperature yesterday: 63 °F

Past Weeks' High & Low Weather Summary

 TemperatureHumidityPressure
High73 °F (Aug 4, 12:50 PM)100% (Jul 21, 3:50 PM)30.15 "Hg (Jul 21, 3:50 PM)
Low46 °F (Jul 25, 5:20 AM)36% (Aug 4, 5:20 PM)29.33 "Hg (Jul 26, 11:50 AM)
Average59 °F77%29.75 "Hg
* Reported Jul 21 12:20 AM — Aug 5 12:20 AM, Linköping, Weather by CustomWeather, © 2015

Note: Actual official high and low records may vary slightly from our data, if they occured in-between our weather recording intervals... More about our weather records

Advertising

Linköping weather history for previous 24 hours

 ConditionsComfort  
Time TempWeatherWind HumidityBarometerVisibility
12:20 AM
Wed, Aug 5
59 °FPassing clouds.8 mph82%29.98 "HgN/A
11:50 PM
Tue, Aug 4
57 °FCool.7 mph88%30.01 "HgN/A
11:20 PM57 °FCool.6 mph82%30.01 "HgN/A
10:50 PM59 °FClear.6 mph77%30.01 "Hg10 mi
10:20 PM59 °FClear.6 mph77%30.01 "Hg10 mi
9:50 PM61 °FSunny.8 mph72%30.01 "Hg10 mi
9:20 PM63 °FSunny.8 mph68%30.01 "Hg10 mi
8:50 PM64 °FSunny.8 mph64%30.01 "Hg10 mi
8:20 PM66 °FSunny.12 mph56%30.04 "Hg10 mi
7:50 PM66 °FSunny.10 mph56%30.04 "Hg10 mi
7:20 PM68 °FSunny.13 mph49%30.04 "Hg10 mi
6:50 PM70 °FPassing clouds.13 mph43%30.04 "HgN/A
6:20 PM70 °FSunny.12 mph43%30.04 "Hg10 mi
5:50 PM72 °FSunny.15 mph36%30.04 "Hg10 mi
5:20 PM72 °FSunny.15 mph36%30.04 "Hg10 mi
4:50 PM72 °FSunny.14 mph41%30.07 "Hg10 mi
4:20 PM72 °FSunny.16 mph41%30.07 "Hg10 mi
3:50 PM73 °FSunny.16 mph38%30.07 "Hg10 mi
3:20 PM73 °FSunny.14 mph44%30.07 "Hg10 mi
2:50 PM73 °FSunny.15 mph41%30.07 "Hg10 mi
2:20 PM73 °FPassing clouds.14 mph44%30.07 "HgN/A
1:50 PM73 °FSunny.14 mph47%30.09 "Hg10 mi
1:20 PM73 °FSunny.13 mph47%30.09 "Hg10 mi
12:50 PM73 °FSunny.14 mph53%30.09 "Hg10 mi
12:20 PM72 °FPassing clouds.12 mph57%30.09 "HgN/A
11:50 AM72 °FSunny.13 mph53%30.12 "Hg10 mi
11:20 AM70 °FSunny.10 mph53%30.12 "Hg10 mi
10:50 AM70 °FSunny.12 mph53%30.12 "Hg10 mi
10:20 AM68 °FSunny.10 mph56%30.12 "Hg10 mi
9:50 AM68 °FSunny.9 mph56%30.12 "Hg10 mi
9:20 AM66 °FPassing clouds.9 mph64%30.12 "HgN/A
8:50 AM64 °FSunny.7 mph64%30.12 "Hg10 mi
8:20 AM63 °FPassing clouds.7 mph68%30.12 "HgN/A
7:50 AM61 °FSunny.6 mph72%30.12 "Hg10 mi
7:20 AM59 °FSunny.6 mph77%30.15 "Hg10 mi
6:50 AM57 °FSunny.3 mph88%30.15 "Hg10 mi
6:20 AM52 °FSunny.5 mph94%30.15 "Hg10 mi
5:50 AM52 °FClear.3 mph94%30.15 "Hg10 mi
5:20 AM48 °FCool.5 mph100%30.12 "HgN/A
4:50 AM50 °FCool.5 mph94%30.15 "HgN/A
4:20 AM52 °FCool.2 mph94%30.15 "HgN/A
3:50 AM52 °FCool.3 mph94%30.15 "HgN/A
3:20 AM52 °FCool.3 mph94%30.15 "HgN/A
2:50 AM52 °FCool.3 mph94%30.15 "HgN/A
2:20 AM54 °FCool.3 mph88%30.15 "HgN/A
1:50 AM54 °FCool.3 mph88%30.15 "HgN/A
1:20 AM55 °FCool.5 mph82%30.15 "HgN/A
Weather by CustomWeather, © 2015

See weather overviewHow to use our weather pages